Regional Weather Roundup
Issued by NWS Jackson, KY

Home | Current Version | Previous Version | Text Only | Print | Product List | Glossary On
Versions: 1 2 3 4 5 6 7 8 9 10 11 12 13 14 15 16 17 18 19 20 21 22 23 24 25 26 27 28 29 30 31 32 33 34 35 36 37 38 39 40 41 42 43 44 45 46 47 48 49 50
000
ASUS43 KJKL 031010
RWRJKL

EAST KENTUCKY HOURLY WEATHER ROUNDUP
NATIONAL WEATHER SERVICE JACKSON KY
500 AM EST SAT DEC 03 2016

NOTE: "FAIR" INDICATES FEW OR NO CLOUDS BELOW 12,000 FEET WITH
NO SIGNIFICANT WEATHER AND/OR OBSTRUCTIONS TO VISIBILITY.

* THESE REPORTS ARE NOT UNDER NWS QUALITY CONTROL AND MAY NOT
  REPORT WEATHER SUCH AS PRECIPITATION AND FOG.

KYZ079-080-083-085-087-088-110-112-115-119-120-031100
...EASTERN KENTUCKY...

CITY           SKY/WX    TMP DP  RH WIND       PRES   REMARKS
JACKSON        CLOUDY    35  29  78 CALM      30.31S
LONDON         CLOUDY    32  28  85 CALM      30.31F
SOMERSET*      CLOUDY    32  30  93 CALM      30.35S
MONTICELLO*    PTCLDY    27  25  92 VRB7      30.35  WCI  19
WILLIAMSBURG*  CLOUDY    28  28 100 CALM      30.32R
MIDDLESBORO*   PTCLDY    30  29  98 CALM      30.32S
HARLAN APT*    CLOUDY    30  28  93 SW3       30.30R
PIKE CO APT*   CLOUDY    35  30  83 CALM      30.30S
MOREHEAD APT*  CLOUDY    37  30  75 CALM      30.34S
ASHLAND*       CLOUDY    39  30  70 CALM      30.32S
$$

KYZ035-036-041-042-044-050-067-078-099-031100
...CENTRAL KENTUCKY...

CITY           SKY/WX    TMP DP  RH WIND       PRES   REMARKS
MT STERLING*   CLOUDY    36  32  87 CALM      30.35R
FLEMING/MASON* CLOUDY    36  31  83 CALM      30.34S
DANVILLE*      CLOUDY    34  32  93 CALM      30.32F
LEXINGTON      CLOUDY    38  31  76 CALM      30.33S
FRANKFORT      CLOUDY    39  31  72 CALM      30.32F
LOUISVILLE     CLOUDY    41  30  65 NW5       30.34F
LEBANON*       CLOUDY    37  32  81 CALM      30.33F
GLASGOW*       CLOUDY    32  32 100 CALM      30.34S
BOWLING GREEN  CLOUDY    34  30  85 CALM      30.35
$$

KYZ091>093-OHZ055-061-077-WVZ005-015-034-035-042-031100
...SOUTHERN OHIO/WEST VIRGINIA...

CITY           SKY/WX    TMP DP  RH WIND       PRES   REMARKS
COVINGTON      CLOUDY    36  34  92 W6        30.33R WCI  31
COLUMBUS       CLOUDY    34  29  82 W3        30.29S
DAYTON         CLOUDY    36  30  79 W7        30.31R WCI  30
HUNTINGTON     CLOUDY    39  28  64 CALM      30.32S
CHARLESTON     CLOUDY    37  29  72 W3        30.31R
BECKLEY        CLOUDY    32  24  72 NW8       30.24R WCI  25
BLUEFIELD      CLOUDY    30  23  75 NW6       30.24R WCI  24
LOGAN CO APT*  CLOUDY    36  28  75 CALM      30.28
$$

VAZ002-007-008-TNZ017-027-036-066-071-031100
...SOUTHWEST VIRGINIA/EAST TENNESSEE...

CITY           SKY/WX    TMP DP  RH WIND       PRES   REMARKS
WISE*          CLOUDY    32  28  86 NW3       30.25F
JONESVILLE*      N/A     27  27 100 CALM      30.32R
ABINGDON*      CLOUDY    37  29  73 N7        30.26F WCI  31
BRISTOL        CLOUDY    30  26  85 CALM      30.29S
MORRISTOWN*    SUNNY     34  30  86 CALM      30.29R
SEVIERVILLE*   SUNNY     27  27 100 CALM      30.28S
OAK RIDGE      MOCLDY    38  29  70 CALM      30.32R
NASHVILLE      CLOUDY    40  31  70 N3        30.34
$$

...KEY TO REMARKS...
VSB - VISIBILITY IN MILES
WCI - WIND CHILL INDEX
HX  - HEAT INDEX

$$



USA.gov is the U.S. government's official web portal to all federal, state and local government web resources and services.